FW6272 Weather Reports


Display with metric or nautical units.
time (UTC)temp
F
wind
direction
speed
MPH
gust
MPH
rain 1hr
in
rain 24hr
in
rain mn
in
humidity
%
barometer
mb
20260506193203 66 198 5.0 17.0 0.00 0.01 0.01 83 1007.8
20260506192703 66 175 6.0 15.0 0.00 0.01 0.01 84 1007.8
20260506192203 66 175 0.0 7.0 0.00 0.01 0.01 84 1008.1
20260506191702 66 202 3.0 10.0 0.00 0.01 0.01 84 1008.1
20260506191202 66 190 6.0 13.0 0.00 0.01 0.01 84 1008.1
20260506190203 66 203 6.0 17.0 0.00 0.01 0.01 85 1007.9
20260506185702 67 186 10.0 25.0 0.00 0.01 0.01 84 1008.4
20260506184703 67 181 8.0 20.0 0.00 0.01 0.01 80 1008.1
20260506184202 67 187 6.0 20.0 0.00 0.01 0.01 81 1008.1
20260506183702 67 170 3.0 10.0 0.00 0.01 0.01 81 1007.8
20260506182202 67 203 6.0 20.0 0.00 0.01 0.01 80 1008.1
20260506181702 67 185 5.0 17.0 0.00 0.01 0.01 79 1008.1
20260506181202 67 168 7.0 20.0 0.00 0.01 0.01 79 1008.3
20260506180702 67 181 9.0 22.0 0.00 0.01 0.01 78 1008.5
20260506180202 68 232 8.0 13.0 0.00 0.01 0.01 77 1008.5
20260506175702 68 230 11.0 22.0 0.00 0.01 0.01 77 1008.5
20260506175203 68 210 7.0 17.0 0.00 0.01 0.01 78 1008.5
20260506174702 68 199 7.0 17.0 0.00 0.01 0.01 78 1008.5
20260506173703 69 204 12.0 20.0 0.00 0.01 0.01 77 1008.5
20260506173202 69 208 7.0 15.0 0.00 0.01 0.01 78 1008.5
20260506172703 70 196 8.0 20.0 0.01 0.01 0.01 77 1008.5
20260506172202 70 207 9.0 17.0 0.01 0.01 0.01 77 1008.5
20260506171702 69 229 9.0 17.0 0.01 0.01 0.01 77 1008.5
20260506171203 69 183 7.0 17.0 0.01 0.01 0.01 76 1008.5
20260506165702 68 199 7.0 13.0 0.01 0.01 0.01 78 1008.8
20260506165203 67 186 5.0 13.0 0.01 0.01 0.01 80 1008.8
20260506164703 67 184 3.0 7.0 0.01 0.01 0.01 82 1009.1
20260506164202 67 123 3.0 7.0 0.01 0.01 0.01 82 1009.1
20260506163703 67 177 5.0 13.0 0.01 0.01 0.01 82 1009.5
20260506162702 67 213 2.0 10.0 0.00 0.00 0.00 82 1009.8
20260506162204 67 190 5.0 10.0 0.00 0.00 0.00 80 1009.8
20260506161703 67 193 5.0 10.0 0.00 0.00 0.00 80 1009.8
20260506161202 67 205 7.0 10.0 0.00 0.00 0.00 80 1009.8
20260506160702 67 188 5.0 13.0 0.00 0.00 0.00 80 1010.1
20260506160203 67 195 3.0 13.0 0.00 0.00 0.00 80 1010.2
20260506155702 68 181 5.0 10.0 0.00 0.00 0.00 79 1010.2
20260506154702 69 203 7.0 17.0 0.00 0.00 0.00 77 1010.2
20260506154203 69 175 5.0 17.0 0.00 0.00 0.00 76 1010.2
20260506153703 70 170 6.0 17.0 0.00 0.00 0.00 73 1009.8
20260506153203 70 186 6.0 15.0 0.00 0.00 0.00 70 1010.0
20260506152703 70 202 5.0 13.0 0.00 0.00 0.00 68 1010.2
20260506152202 70 203 7.0 15.0 0.00 0.00 0.00 67 1009.8
20260506151702 70 199 7.0 20.0 0.00 0.00 0.00 68 1010.2
20260506151203 70 206 7.0 15.0 0.00 0.00 0.00 68 1010.2
20260506150703 70 214 7.0 15.0 0.00 0.00 0.00 69 1010.2
20260506150202 70 191 7.0 13.0 0.00 0.00 0.00 68 1010.2
20260506145703 70 176 7.0 13.0 0.00 0.00 0.00 68 1010.2
20260506145202 70 212 6.0 17.0 0.00 0.00 0.00 68 1010.2
20260506144202 71 229 5.0 7.0 0.00 0.00 0.00 68 1010.2
20260506143202 71 195 9.0 15.0 0.00 0.00 0.00 66 1010.1
20260506142702 70 181 5.0 13.0 0.00 0.00 0.00 67 1010.2
20260506142203 70 210 6.0 17.0 0.00 0.00 0.00 67 1010.1
20260506141702 70 223 10.0 20.0 0.00 0.00 0.00 66 1009.9
20260506141203 70 202 8.0 17.0 0.00 0.00 0.00 67 1010.1
20260506140703 70 203 4.0 10.0 0.00 0.00 0.00 68 1010.1
20260506140202 70 190 5.0 17.0 0.00 0.00 0.00 68 1010.2
20260506135702 70 206 6.0 15.0 0.00 0.00 0.00 69 1010.0
20260506135203 70 192 9.0 17.0 0.00 0.00 0.00 69 1009.9
20260506134202 70 183 5.0 13.0 0.00 0.00 0.00 70 1009.8
20260506133702 70 197 7.0 17.0 0.00 0.00 0.00 69 1010.2
20260506133203 70 213 9.0 22.0 0.00 0.00 0.00 69 1010.2
20260506132702 70 191 5.0 15.0 0.00 0.00 0.00 70 1010.2
20260506132202 69 188 8.0 20.0 0.00 0.00 0.00 70 1010.2
20260506131702 69 181 7.0 15.0 0.00 0.00 0.00 70 1010.2
20260506130702 69 213 8.0 20.0 0.00 0.00 0.00 70 1010.2
20260506130203 69 191 8.0 15.0 0.00 0.00 0.00 71 1010.2
20260506125203 68 171 7.0 17.0 0.00 0.00 0.00 72 1010.2
20260506124704 68 184 8.0 17.0 0.00 0.00 0.00 72 1010.2
20260506124202 67 181 7.0 20.0 0.00 0.00 0.00 72 1010.2
20260506123702 67 201 5.0 15.0 0.00 0.00 0.00 74 1010.2
20260506123202 66 238 9.0 15.0 0.00 0.00 0.00 74 1010.2
20260506122702 66 189 8.0 15.0 0.00 0.00 0.00 75 1010.2
20260506122202 66 194 6.0 17.0 0.00 0.00 0.00 76 1010.5
20260506121702 66 217 5.0 15.0 0.00 0.00 0.00 76 1010.3
20260506121203 66 193 4.0 15.0 0.00 0.00 0.00 76 1010.2
20260506120702 66 206 5.0 15.0 0.00 0.00 0.00 76 1010.2
20260506120203 66 204 7.0 17.0 0.00 0.00 0.00 76 1010.3
20260506115703 66 199 7.0 15.0 0.00 0.00 0.00 76 1010.5
20260506115203 66 197 9.0 17.0 0.00 0.00 0.00 76 1010.2
20260506114703 65 202 6.0 15.0 0.00 0.00 0.00 77 1010.3
20260506114203 65 194 5.0 15.0 0.00 0.00 0.00 77 1010.5
20260506113703 65 190 8.0 17.0 0.00 0.00 0.00 77 1010.5
20260506111702 64 192 9.0 20.0 0.00 0.00 0.00 79 1010.4
20260506111203 64 197 9.0 20.0 0.00 0.00 0.00 80 1010.5
20260506110703 64 182 7.0 22.0 0.00 0.00 0.00 81 1010.5
20260506110203 64 189 6.0 13.0 0.00 0.00 0.00 81 1010.5
20260506105703 63 211 9.0 15.0 0.00 0.00 0.00 81 1010.2
20260506104702 63 217 4.0 13.0 0.00 0.00 0.00 82 1010.5
20260506104202 63 178 5.0 15.0 0.00 0.00 0.00 83 1010.3
20260506103702 63 191 9.0 15.0 0.00 0.00 0.00 83 1010.5
20260506103203 63 197 5.0 15.0 0.00 0.00 0.00 83 1010.5
20260506102703 63 188 4.0 13.0 0.00 0.00 0.00 84 1010.7
20260506101702 63 193 5.0 15.0 0.00 0.00 0.00 83 1010.5
20260506101203 63 185 7.0 15.0 0.00 0.00 0.00 83 1010.2
20260506100703 63 186 5.0 13.0 0.00 0.00 0.00 84 1010.2
20260506100203 63 195 5.0 13.0 0.00 0.00 0.00 84 1010.5
20260506095202 64 155 1.0 2.0 0.00 0.00 0.00 84 1010.2
20260506094703 64 179 4.0 10.0 0.00 0.00 0.00 84 1010.2
20260506092702 64 180 6.0 17.0 0.00 0.00 0.00 83 1010.2
20260506092203 64 185 5.0 15.0 0.00 0.00 0.00 83 1010.4
20260506091203 64 198 5.0 13.0 0.00 0.00 0.00 84 1010.2
20260506090702 64 180 5.0 13.0 0.00 0.00 0.00 83 1010.5
20260506090203 64 174 5.0 15.0 0.00 0.00 0.00 83 1010.5
20260506085703 64 199 5.0 15.0 0.00 0.00 0.00 83 1010.2
20260506085203 64 188 5.0 13.0 0.00 0.00 0.00 83 1010.5
20260506084703 64 205 6.0 15.0 0.00 0.00 0.00 83 1010.2
20260506084203 64 186 6.0 17.0 0.00 0.00 0.00 83 1010.8
20260506082702 64 210 6.0 15.0 0.00 0.00 0.00 83 1010.5
20260506082203 64 203 5.0 10.0 0.00 0.00 0.00 83 1010.5
20260506080703 65 179 3.0 13.0 0.00 0.00 0.00 83 1010.8
20260506072702 65 187 8.0 17.0 0.00 0.00 0.00 81 1010.5
20260506072202 65 198 4.0 15.0 0.00 0.00 0.00 81 1010.5
20260506071702 66 219 7.0 15.0 0.00 0.00 0.00 81 1010.5
20260506071202 66 216 7.0 17.0 0.00 0.00 0.00 80 1010.8
20260506070703 66 204 6.0 17.0 0.00 0.00 0.00 80 1010.8
20260506062202 67 191 7.0 20.0 0.00 0.00 0.00 78 1010.5
20260506060703 67 203 3.0 13.0 0.00 0.00 0.00 78 1010.8
20260506060203 67 201 5.0 15.0 0.00 0.00 0.00 77 1010.8
20260506051202 67 187 5.0 13.0 0.00 0.00 0.00 75 1011.2
20260506050703 67 175 4.0 10.0 0.00 0.00 0.00 75 1011.5
20260506050202 67 178 5.0 10.0 0.00 0.00 0.00 75 1011.2
20260506044703 68 209 3.0 13.0 0.00 0.00 0.00 74 1011.2
20260506044203 68 212 6.0 13.0 0.00 0.00 0.00 73 1011.5
20260506043702 68 142 5.0 15.0 0.00 0.00 0.00 73 1011.2
20260506043203 68 214 5.0 13.0 0.00 0.00 0.00 73 1011.5
20260506042703 68 211 3.0 10.0 0.00 0.00 0.00 72 1011.5
20260506042203 68 201 5.0 15.0 0.00 0.00 0.00 71 1011.3
20260506041702 68 205 7.0 15.0 0.00 0.00 0.00 71 1011.5
20260506041203 68 181 4.0 10.0 0.00 0.00 0.00 71 1011.5
20260506040703 68 187 3.0 13.0 0.00 0.00 0.00 71 1011.2
20260506040203 68 203 6.0 15.0 0.00 0.00 0.00 71 1011.2
20260506035703 68 196 5.0 13.0 0.00 0.00 0.00 71 1011.5
20260506035203 68 196 7.0 10.0 0.00 0.00 0.00 71 1011.2
20260506034703 68 207 7.0 10.0 0.00 0.00 0.00 70 1011.2
20260506034203 68 207 7.0 10.0 0.00 0.00 0.00 70 1011.2
20260506033703 68 140 2.0 10.0 0.00 0.00 0.00 70 1011.5
20260506033203 68 196 6.0 13.0 0.00 0.00 0.00 70 1011.4
20260506032703 68 204 4.0 13.0 0.00 0.00 0.00 70 1011.4
20260506032203 68 193 4.0 10.0 0.00 0.00 0.00 70 1011.5
20260506031703 68 225 3.0 10.0 0.00 0.00 0.00 69 1011.4
20260506031203 68 224 5.0 10.0 0.00 0.00 0.00 69 1011.4
20260506030703 68 173 0.0 13.0 0.00 0.00 0.00 70 1011.5
20260506030203 68 177 3.0 7.0 0.00 0.00 0.00 69 1011.5
20260506025703 68 162 1.0 7.0 0.00 0.00 0.00 69 1011.5
20260506025202 68 189 5.0 7.0 0.00 0.00 0.00 68 1011.5
20260506024703 68 212 3.0 7.0 0.00 0.00 0.00 68 1011.4
20260506024202 68 184 2.0 10.0 0.00 0.00 0.00 68 1011.5
20260506023703 69 173 2.0 10.0 0.00 0.00 0.00 67 1011.2
20260506023203 69 208 3.0 5.0 0.00 0.00 0.00 66 1011.5
20260506022703 69 209 3.0 10.0 0.00 0.00 0.00 66 1011.4
20260506022202 69 193 4.0 10.0 0.00 0.00 0.00 66 1011.5
20260506021204 69 204 4.0 13.0 0.00 0.00 0.00 65 1011.2
20260506020702 69 192 4.0 15.0 0.00 0.00 0.00 64 1011.5
20260506020202 70 200 6.0 15.0 0.00 0.00 0.00 64 1011.2
20260506015703 70 166 6.0 15.0 0.00 0.00 0.00 64 1011.2
20260506015202 70 191 3.0 10.0 0.00 0.00 0.00 64 1011.2
20260506014703 70 202 3.0 13.0 0.00 0.00 0.00 64 1011.2
20260506014203 71 200 6.0 10.0 0.00 0.00 0.00 63 1011.2
20260506013203 71 202 7.0 10.0 0.00 0.00 0.00 63 1011.2
20260506012703 71 188 2.0 15.0 0.00 0.00 0.00 63 1010.8
20260506012204 72 208 5.0 13.0 0.00 0.00 0.00 62 1011.2
20260506011203 72 209 5.0 13.0 0.00 0.00 0.00 61 1010.8
20260506010203 73 202 5.0 13.0 0.00 0.00 0.00 60 1010.8
20260506005702 73 196 3.0 10.0 0.00 0.00 0.00 59 1010.8
20260506005203 73 232 7.0 13.0 0.00 0.00 0.00 58 1010.8
20260506004702 73 199 5.0 17.0 0.00 0.00 0.00 58 1010.6
20260506004203 74 173 5.0 17.0 0.00 0.00 0.00 57 1010.5
20260506003702 74 213 7.0 15.0 0.00 0.00 0.00 56 1010.5
20260506003202 74 198 6.0 10.0 0.00 0.00 0.00 55 1010.5
20260506002703 75 198 8.0 10.0 0.00 0.00 0.00 53 1010.2
20260506002202 75 198 8.0 10.0 0.00 0.00 0.00 53 1010.2
20260506001702 75 193 7.0 13.0 0.00 0.00 0.00 53 1010.3
20260506001203 76 150 7.0 13.0 0.00 0.00 0.00 51 1010.5
20260506000703 76 187 9.0 20.0 0.00 0.00 0.00 51 1010.2
20260506000204 77 219 3.0 17.0 0.00 0.00 0.00 49 1010.2
20260505235202 77 203 7.0 17.0 0.00 0.00 0.00 47 1010.4
20260505234702 77 180 7.0 15.0 0.00 0.00 0.00 46 1010.2
20260505234203 78 199 5.0 13.0 0.00 0.00 0.00 45 1010.2
20260505233203 78 201 7.0 20.0 0.00 0.00 0.00 46 1009.8
20260505232703 78 217 4.0 10.0 0.00 0.00 0.00 46 1009.8
20260505232203 79 195 6.0 15.0 0.00 0.00 0.00 46 1009.8
20260505231703 79 199 6.0 17.0 0.00 0.00 0.00 45 1009.8
20260505231203 80 200 8.0 25.0 0.00 0.00 0.00 43 1009.6
20260505230703 80 177 10.0 25.0 0.00 0.00 0.00 43 1009.8
20260505230203 80 209 9.0 25.0 0.00 0.00 0.00 43 1009.5
20260505225203 81 165 7.0 17.0 0.00 0.00 0.00 41 1009.5
20260505223703 81 210 8.0 20.0 0.00 0.00 0.00 40 1009.1
20260505223202 82 215 9.0 20.0 0.00 0.00 0.00 40 1009.1
20260505222703 82 199 7.0 20.0 0.00 0.00 0.00 39 1009.1
20260505222202 82 194 11.0 22.0 0.00 0.00 0.00 38 1009.1
20260505221702 82 190 10.0 25.0 0.00 0.00 0.00 39 1009.1
20260505221203 83 199 13.0 25.0 0.00 0.00 0.00 38 1008.8
20260505220703 83 216 9.0 20.0 0.00 0.00 0.00 37 1008.5
20260505220203 83 198 7.0 17.0 0.00 0.00 0.00 35 1008.8
20260505215203 84 198 10.0 25.0 0.00 0.00 0.00 33 1009.1
20260505213702 84 169 8.0 17.0 0.00 0.00 0.00 33 1009.1
20260505213202 84 209 5.0 13.0 0.00 0.00 0.00 33 1009.1
20260505212703 84 166 5.0 15.0 0.00 0.00 0.00 33 1009.1
20260505212202 84 213 5.0 17.0 0.00 0.00 0.00 32 1008.8
20260505211202 84 202 12.0 28.0 0.00 0.00 0.00 34 1008.8
20260505205703 84 218 8.0 22.0 0.00 0.00 0.00 37 1008.5
20260505205203 84 149 13.0 22.0 0.00 0.00 0.00 37 1008.5
20260505204704 84 210 9.0 17.0 0.00 0.00 0.00 37 1008.2
20260505204203 84 235 6.0 22.0 0.00 0.00 0.00 38 1008.5
20260505202703 84 193 12.0 20.0 0.00 0.00 0.00 38 1008.5
20260505202202 84 160 11.0 20.0 0.00 0.00 0.00 39 1008.5
20260505201703 84 181 9.0 25.0 0.00 0.00 0.00 39 1008.5
20260505201203 84 202 10.0 20.0 0.00 0.00 0.00 38 1008.5
20260505200203 84 202 11.0 25.0 0.00 0.00 0.00 37 1008.5
20260505195703 85 199 12.0 30.0 0.00 0.00 0.00 37 1008.5
20260505195202 85 201 13.0 25.0 0.00 0.00 0.00 36 1008.7
20260505194703 85 181 13.0 25.0 0.00 0.00 0.00 38 1008.6